Weather History for KCNM - September, 2013

Change the Weather History Date:

Saturday, September 14, 2013

  Actual Average Record
Temperature  
Mean Temperature 74 °F -  
Max Temperature 86 °F - - ()
Min Temperature 64 °F - - ()
Cooling Degree Days 9    
Growing Degree Days 24 (Base 50)    
Moisture  
Dew Point 59 °F    
Average Humidity 62    
Maximum Humidity 93    
Minimum Humidity 32    
Precipitation  
Precipitation 0.00 in - - ()
Sea Level Pressure  
Sea Level Pressure 29.82 in    
Wind  
Wind Speed 5 mph (SSW)    
Max Wind Speed 12 mph    
Max Gust Speed -    
Visibility 10 miles    
Events      
T = Trace of Precipitation, MM = Missing Value Source: NWS Daily Summary

Daily Weather History Graph

Daily Weather History Graph

Search for Another Location

Airport or City:

Trip Planner

Search our weather history database for the weather conditions in past years. The results will help you decide how hot, cold, wet, or windy it might be!

Date:

Astronomy

Sep. 14, 2013 Rise Set
Actual Time 6:40 AM MDT 7:03 PM MDT
Civil Twilight 6:15 AM MDT 7:28 PM MDT
Nautical Twilight 5:46 AM MDT 7:57 PM MDT
Astronomical Twilight 5:17 AM MDT 8:26 PM MDT
Moon 3:34 PM MDT (9/14) 1:28 AM MDT (9/14)
Length of Visible Light 13h 12m
Length of Day
12h 23m
Waxing Gibbous, 73% of the Moon is Illuminated
Sep 14
Waxing Gibbous
Sep 19
Full
Sep 26
Last Quarter
Oct 4
New
Oct 11
First Quarter

Hourly Weather History & Observations

Time (MDT) Temp. Heat Index Dew Point Humidity Pressure Visibility Wind Dir Wind Speed Gust Speed Precip Events Conditions
12:53 AM 68.0 °F - 64.0 °F 87% 29.83 in 10.0 mi West 6.9 mph - N/A   Clear
1:53 AM 66.9 °F - 64.0 °F 90% 29.82 in 10.0 mi West 3.5 mph - N/A   Clear
2:53 AM 66.0 °F - 63.0 °F 90% 29.82 in 10.0 mi Calm Calm - N/A   Clear
3:53 AM 66.0 °F - 62.1 °F 87% 29.81 in 10.0 mi NE 3.5 mph - N/A   Clear
4:53 AM 64.0 °F - 62.1 °F 93% 29.81 in 10.0 mi North 3.5 mph - N/A   Clear
5:53 AM 64.0 °F - 61.0 °F 90% 29.83 in 10.0 mi Calm Calm - N/A   Clear
6:53 AM 64.0 °F - 62.1 °F 93% 29.85 in 10.0 mi Calm Calm - N/A   Clear
7:53 AM 66.9 °F - 63.0 °F 87% 29.87 in 10.0 mi Calm Calm - N/A   Clear
8:53 AM 71.1 °F - 60.1 °F 68% 29.88 in 10.0 mi Variable 4.6 mph - N/A   Clear
9:53 AM 75.0 °F - 57.9 °F 55% 29.88 in 10.0 mi SE 5.8 mph - N/A   Clear
10:53 AM 80.1 °F 80.6 °F 57.9 °F 47% 29.87 in 10.0 mi SSE 10.4 mph - N/A   Clear
11:53 AM 81.0 °F 81.1 °F 57.9 °F 45% 29.85 in 10.0 mi SSE 11.5 mph - N/A   Clear
12:53 PM 82.9 °F 82.4 °F 57.0 °F 41% 29.82 in 10.0 mi South 10.4 mph - N/A   Partly Cloudy
1:53 PM 82.9 °F 82.0 °F 55.0 °F 38% 29.81 in 10.0 mi SSE 9.2 mph - N/A   Scattered Clouds
2:53 PM 84.0 °F 82.6 °F 54.0 °F 35% 29.78 in 10.0 mi South 4.6 mph - N/A   Clear
3:53 PM 84.9 °F 83.3 °F 54.0 °F 34% 29.75 in 10.0 mi Variable 6.9 mph - N/A   Clear
4:53 PM 84.9 °F - 52.0 °F 32% 29.76 in 10.0 mi SSW 6.9 mph - N/A   Clear
5:53 PM 84.0 °F 82.9 °F 55.0 °F 37% 29.77 in 10.0 mi West 6.9 mph - N/A   Clear
6:53 PM 80.1 °F 81.1 °F 61.0 °F 52% 29.78 in 10.0 mi WNW 3.5 mph - N/A   Clear
7:53 PM 77.0 °F - 62.1 °F 60% 29.79 in 10.0 mi Calm Calm - N/A   Clear
8:53 PM 75.9 °F - 61.0 °F 60% 29.81 in 10.0 mi Calm Calm - N/A   Clear
9:53 PM 75.0 °F - 61.0 °F 62% 29.82 in 10.0 mi SSW 3.5 mph - N/A   Clear
10:53 PM 73.9 °F - 55.0 °F 52% 29.82 in 10.0 mi South 5.8 mph - N/A   Mostly Cloudy
11:53 PM 72.0 °F - 54.0 °F 53% 29.82 in 10.0 mi South 6.9 mph - N/A   Clear